Waarnemingen

Advertentie
Mijn weer
Lannion, Frankrijk (7118): temperatuur & dauwpunt: 15.06.2018 17:00:00 - 21.06.2018 17:00:00 (CEST)Lannion, Frankrijk (7118): windsnelheid & windstoten: 15.06.2018 17:00:00 - 21.06.2018 17:00:00 (CEST)Lannion, Frankrijk (7118): windrichting: 15.06.2018 17:00:00 - 21.06.2018 17:00:00 (CEST)Lannion, Frankrijk (7118): luchtdruk: 15.06.2018 17:00:00 - 21.06.2018 17:00:00 (CEST)Lannion, Frankrijk (7118): zicht: 15.06.2018 17:00:00 - 21.06.2018 17:00:00 (CEST)Lannion, Frankrijk (7118): neerslag: 15.06.2018 17:00:00 - 21.06.2018 17:00:00 (CEST)
Datum & Tijd tt [°C] td [°C] ff [km/u] ff [kn] fx [km/u] fx [kn] dd ppp [hPa] vv [km] rr [mm]
21.06.2018 17:00:00 14,7 7,3 22 12 39 21 N 1028,6 20 0,0
21.06.2018 16:00:00 14,6 7,9 24 13 42 23 N 1028,3 20 0,0
21.06.2018 15:00:00 14,5 8,2 25 13 39 21 N 1028,2 41 0,0
21.06.2018 14:00:00 14,3 8,5 24 13 44 24 N 1027,8 19 0,0
21.06.2018 13:00:00 14,6 8,3 28 15 44 24 N 1027,5 20 0,0
21.06.2018 12:00:00 14,5 7,8 25 13 39 21 N 1027,1 20 0,0
21.06.2018 11:00:00 14,5 8,2 26 14 40 21 N 1026,9 49 0,0
21.06.2018 10:00:00 14,6 8,8 23 13 39 21 N 1026,8 20 0,0
21.06.2018 09:00:00 14,1 9,1 23 13 39 21 N 1026,3 20 0,0
21.06.2018 08:00:00 13,5 9,2 21 11 38 21 N 1025,8 41 0,0
21.06.2018 07:00:00 12,5 9,0 14 8 27 15 N 1025,5 53 0,0
21.06.2018 06:00:00 12,4 8,9 13 7 29 16 N 1024,7 59 0,0
21.06.2018 05:00:00 12,8 10,3 14 8 24 13 NNW 1024,3 52 0,0
21.06.2018 04:00:00 13,9 12,9 13 7 24 13 NNW 1024,2 17 0,0
21.06.2018 03:00:00 14,2 13,6 11 6 23 13 NW 1023,9 15 0,0
21.06.2018 02:00:00 14,2 13,7 8 4 16 9 WNW 1024,0 15 0,0
21.06.2018 01:00:00 14,3 13,8 11 6 19 10 WNW 1024,0 2,6 0,0
21.06.2018 00:00:00 14,1 13,6 6 4 19 10 W 1023,9 1,2 0,2
20.06.2018 23:00:00 13,9 13,4 10 5 19 10 WNW 1023,9 0,7 0,0
20.06.2018 22:00:00 13,5 12,9 10 5 21 11 WNW 1023,0 0,7 0,0
20.06.2018 21:00:00 17,2 13,7 9 5 15 8 NW 1022,2 53 0,0
20.06.2018 20:00:00 17,7 14,0 7 4 15 8 WNW 1022,3 52 0,0
20.06.2018 19:00:00 16,8 13,5 8 5 19 10 NNW 1022,5 20 0,0
20.06.2018 18:00:00 17,5 14,4 11 6 21 11 NNW 1022,4 19 0,0
20.06.2018 17:00:00 18,7 14,8 13 7 24 13 NNW 1022,4 53 0,0
20.06.2018 16:00:00 20,5 16,3 9 5 21 11 NNW 1022,3 56 0,0
20.06.2018 15:00:00 19,3 15,4 15 8 25 14 NW 1022,8 19 0,0
20.06.2018 14:00:00 21,5 16,9 11 6 22 12 N 1022,5 20 0,0
20.06.2018 13:00:00 20,6 17,2 9 5 16 9 NW 1022,9 19 0,0
20.06.2018 12:00:00 20,0 17,4 3 2 13 7 N 1022,8 16 0,0
20.06.2018 11:00:00 17,9 16,1 7 4 11 6 NW 1023,1 14 0,0
20.06.2018 10:00:00 16,3 15,7 0 0 10 5 N 1023,4 17 0,0
20.06.2018 09:00:00 14,4 13,9 7 4 12 7 ZO 1023,4 1,3 0,0
20.06.2018 08:00:00 14,1 13,8 5 3 13 7 OZO 1023,4 1,0 0,0
20.06.2018 07:00:00 13,7 13,4 10 5 13 7 ZO 1023,1 0,2 0,0
20.06.2018 06:00:00 14,0 13,5 8 4 13 7 ZO 1023,1 0,3 0,0
20.06.2018 05:00:00 14,5 14,0 8 5 12 6 O 1023,3 0,6 0,0
20.06.2018 04:00:00 14,8 14,3 5 3 12 7 O 1023,5 2,1 0,0
20.06.2018 03:00:00 14,6 14,1 4 2 7 4 NO 1023,7 1,9 0,0
20.06.2018 02:00:00 14,7 14,1 4 2 7 4 NNO 1024,2 0,9 0,0
20.06.2018 01:00:00 15,0 14,4 6 3 9 5 N 1024,6 1,4 0,0
20.06.2018 00:00:00 15,2 14,4 3 2 10 5 NNO 1024,8 1,3 0,0
19.06.2018 23:00:00 15,4 14,1 8 4 11 6 N 1024,9 9 0,0
19.06.2018 22:00:00 16,0 14,0 6 3 12 6 NNO 1024,6 19 0,0
19.06.2018 21:00:00 16,8 14,3 8 4 15 8 N 1024,7 20 0,0
19.06.2018 20:00:00 17,2 14,5 10 5 16 8 NNO 1025,0 38 0,0
19.06.2018 19:00:00 19,4 15,3 10 5 20 11 NW 1025,1 19 0,0
19.06.2018 18:00:00 20,5 16,1 9 5 21 11 WNW 1025,4 19 0,0
19.06.2018 17:00:00 21,0 16,2 6 4 16 8 NW 1025,6 17 0,0
19.06.2018 16:00:00 20,5 16,1 7 4 17 9 WNW 1025,8 18 0,0
19.06.2018 15:00:00 19,7 15,6 7 4 15 8 W 1026,2 19 0,0
19.06.2018 14:00:00 19,5 16,0 5 3 15 8 W 1026,5 18 0,0
19.06.2018 13:00:00 18,4 15,6 10 5 14 8 W 1026,6 19 0,0
19.06.2018 12:00:00 17,9 15,7 7 4 14 8 W 1026,6 16 0,0
19.06.2018 11:00:00 17,5 15,5 9 5 13 7 W 1026,9 17 0,0
19.06.2018 10:00:00 16,9 15,4 5 3 11 6 ZW 1027,0 10 0,0
19.06.2018 09:00:00 16,3 15,5 6 4 12 6 WZW 1026,8 36 0,0
19.06.2018 08:00:00 15,8 15,3 8 4 13 7 ZW 1026,6 40 0,0
19.06.2018 07:00:00 15,4 14,9 6 3 18 10 WZW 1026,3 20 0,2
19.06.2018 06:00:00 15,2 14,7 13 7 24 13 WZW 1026,2 1,6 0,0
19.06.2018 05:00:00 15,3 14,8 13 7 27 14 WZW 1026,0 3,4 0,0
19.06.2018 04:00:00 15,3 14,8 13 7 23 12 WZW 1026,0 6 0,0
19.06.2018 03:00:00 15,2 14,7 12 6 20 11 WZW 1026,2 3,2 0,2
19.06.2018 02:00:00 15,3 14,8 10 6 21 12 WZW 1026,3 4,5 0,0
19.06.2018 01:00:00 15,1 14,6 15 8 25 14 WZW 1026,6 2,9 0,0
19.06.2018 00:00:00 14,7 14,2 16 8 23 13 W 1026,8 3,1 0,0
18.06.2018 23:00:00 15,1 14,5 16 8 24 13 W 1026,5 3,4 0,0
18.06.2018 22:00:00 15,8 14,7 14 7 26 14 W 1026,2 10 0,0
18.06.2018 21:00:00 16,4 14,9 18 10 29 15 W 1025,7 14 0,0
18.06.2018 20:00:00 17,4 14,9 17 9 26 14 WZW 1025,5 19 0,0
18.06.2018 19:00:00 18,6 15,8 11 6 22 12 WZW 1025,1 19 0,0
18.06.2018 18:00:00 18,3 15,7 16 9 24 13 W 1025,1 19 0,0
18.06.2018 17:00:00 18,5 15,0 16 9 24 13 W 1025,2 60 0,0
18.06.2018 16:00:00 19,9 15,7 13 7 29 16 W 1025,0 42 0,0
18.06.2018 15:00:00 18,7 14,8 21 12 29 16 WZW 1025,1 20 0,0
18.06.2018 14:00:00 18,1 14,2 16 9 29 16 W 1025,3 42 0,0
18.06.2018 13:00:00 16,6 13,5 22 12 37 20 W 1025,5 17 0,0
18.06.2018 12:00:00 16,2 13,1 21 11 36 19 W 1025,0 20 0,0
18.06.2018 11:00:00 15,7 12,6 22 12 38 21 W 1024,6 20 0,2
18.06.2018 10:00:00 14,8 13,7 19 10 31 17 W 1024,3 19 0,0
18.06.2018 09:00:00 14,1 13,5 23 12 31 17 W 1023,7 10 0,0
18.06.2018 08:00:00 14,0 13,4 18 10 30 16 W 1023,0 5 0,0
18.06.2018 07:00:00 13,8 13,0 16 9 31 17 W 1022,7 3,5 0,0
18.06.2018 06:00:00 13,9 13,3 16 9 31 17 WZW 1022,3 7 0,0
18.06.2018 05:00:00 13,8 13,0 17 9 32 17 WZW 1022,1 4,8 0,0
18.06.2018 04:00:00 13,9 13,3 15 8 27 14 WZW 1021,8 13 0,0
18.06.2018 03:00:00 13,8 13,2 19 11 33 18 W 1022,0 2,3 0,8
18.06.2018 02:00:00 15,1 14,1 11 6 22 12 WZW 1021,6 9 0,0
18.06.2018 01:00:00 14,9 13,9 10 6 27 15 ZW 1021,5 14 0,0
18.06.2018 00:00:00 15,0 14,5 15 8 35 19 WZW 1021,6 7 0,0
17.06.2018 23:00:00 15,0 14,5 22 12 40 21 WZW 1021,2 3,4 0,2
17.06.2018 22:00:00 15,5 14,9 19 11 29 16 WZW 1020,7 2,0 0,4
17.06.2018 21:00:00 16,2 14,9 17 9 28 15 WZW 1020,4 8 0,0
17.06.2018 20:00:00 16,3 15,0 18 10 31 17 WZW 1020,1 3,0 0,0
17.06.2018 19:00:00 17,2 15,0 19 10 36 19 ZW 1019,6 43 0,0
17.06.2018 18:00:00 16,6 15,0 25 14 42 23 ZW 1019,7 10 0,0
17.06.2018 17:00:00 17,1 14,2 24 13 42 23 ZW 1019,9 54 0,0
17.06.2018 16:00:00 17,1 13,8 24 13 38 20 ZZW 1019,7 54 0,0
17.06.2018 15:00:00 16,3 13,6 22 12 42 23 ZZW 1019,9 8 0,0
17.06.2018 14:00:00 17,0 12,7 24 13 41 22 ZZW 1019,9 33 0,0
17.06.2018 13:00:00 16,5 11,8 22 12 40 22 ZZW 1020,2 19 0,0
17.06.2018 12:00:00 15,7 12,1 18 10 34 19 ZW 1020,4 18 0,2
17.06.2018 11:00:00 15,9 10,9 22 12 33 18 ZZW 1020,4 20 0,0
17.06.2018 10:00:00 15,3 10,9 16 9 31 17 ZW 1020,6 20 0,0
17.06.2018 09:00:00 13,9 10,5 13 7 26 14 ZZW 1020,2 41 0,0
17.06.2018 08:00:00 13,3 10,3 14 8 24 13 ZW 1020,3 20 0,0
17.06.2018 07:00:00 12,9 9,7 13 7 24 13 ZW 1019,9 19 0,0
17.06.2018 06:00:00 12,8 9,6 12 7 22 12 ZW 1019,7 18 0,0
17.06.2018 05:00:00 13,0 10,0 10 6 22 12 ZW 1019,8 18 0,0
17.06.2018 04:00:00 13,1 10,1 13 7 21 11 WZW 1020,2 18 0,0
17.06.2018 03:00:00 13,3 10,3 15 8 23 13 WZW 1020,2 18 0,0
17.06.2018 02:00:00 13,3 10,3 14 7 23 12 WZW 1020,2 18 0,0
17.06.2018 01:00:00 13,3 10,1 11 6 19 11 WZW 1020,3 19 0,0
17.06.2018 00:00:00 13,4 10,2 13 7 23 12 WZW 1020,6 18 0,0
16.06.2018 23:00:00 13,3 10,3 13 7 25 14 WZW 1020,0 18 0,0
16.06.2018 22:00:00 13,5 10,3 16 9 26 14 WZW 1019,7 18 0,0
16.06.2018 21:00:00 13,9 9,9 17 9 33 18 W 1019,5 19 0,0
16.06.2018 20:00:00 14,4 10,2 21 11 34 18 W 1019,1 16 0,0
16.06.2018 19:00:00 14,7 10,9 21 11 37 20 W 1018,9 16 0,0
16.06.2018 18:00:00 15,1 11,9 21 11 36 19 W 1018,5 14 0,0
16.06.2018 17:00:00 15,1 11,9 20 11 31 17 W 1018,4 15 0,0
16.06.2018 16:00:00 14,4 13,1 21 11 39 21 W 1017,7 4,5 0,8
16.06.2018 15:00:00 16,1 12,8 21 12 41 22 ZW 1017,3 18 0,0
16.06.2018 14:00:00 16,2 12,6 16 9 33 18 ZW 1017,4 18 0,2
16.06.2018 13:00:00 16,5 11,4 19 10 35 19 ZW 1017,4 18 0,0
16.06.2018 12:00:00 16,5 11,6 16 9 36 20 ZZW 1017,1 17 0,0
16.06.2018 11:00:00 14,6 11,6 16 8 29 16 ZZW 1017,6 12 0,0
16.06.2018 10:00:00 14,1 10,9 16 9 27 15 ZZW 1017,6 16 0,0
16.06.2018 09:00:00 13,5 10,7 12 7 21 12 ZZW 1017,5 15 0,0
16.06.2018 08:00:00 12,2 10,3 8 4 14 8 ZZO 1017,5 18 0,0
16.06.2018 07:00:00 11,9 10,3 9 5 16 9 ZZO 1017,3 20 0,0
16.06.2018 06:00:00 11,4 9,8 8 4 14 8 Z 1017,3 18 0,0
16.06.2018 05:00:00 11,4 9,8 6 3 13 7 Z 1017,6 18 0,0
16.06.2018 04:00:00 11,7 9,3 7 4 16 8 Z 1018,1 52 0,0
16.06.2018 03:00:00 11,2 9,1 7 4 13 7 ZW 1018,5 48 0,0
16.06.2018 02:00:00 11,6 10,2 6 3 9 5 ZZO 1018,2 20 0,0
16.06.2018 01:00:00 11,5 10,2 6 3 10 5 ZZW 1018,7 19 0,0
16.06.2018 00:00:00 11,4 10,0 7 4 11 6 W 1019,2 18 0,0
15.06.2018 23:00:00 11,7 9,8 7 4 13 7 WZW 1019,2 17 0,0
15.06.2018 22:00:00 13,5 9,9 10 6 17 9 W 1019,2 20 0,0
15.06.2018 21:00:00 14,4 10,4 15 8 23 12 W 1019,5 20 0,0
15.06.2018 20:00:00 15,9 9,3 14 7 21 11 WNW 1019,5 20 0,0
15.06.2018 19:00:00 16,0 9,9 11 6 24 13 WNW 1019,3 20 0,0
15.06.2018 18:00:00 16,8 9,5 14 8 25 14 NW 1019,8 20 0,0
15.06.2018 17:00:00 17,7 9,3 19 10 26 14 W 1020,1 60 0,0

tt = temperatuur
td = dauwpunt
ff = windsnelheid
fx = windstoten
dd = windrichting
ppp = luchtdruk
vv = zicht
rr = neerslag

Weerstations in de omgeving